Orbital Elements at Epoch 2459000.5 (2020-May-31.0) TDB
Reference: JPL 16 (heliocentric ecliptic J2000)
Element | Value | Uncertainty (1-sigma) | Units |
e | .1396030530744835 | 4.3504e-08 | |
a | 2.563721128680082 | 1.8082e-08 | au |
q | 2.205817831884782 | 1.1405e-07 | au |
i | 1.508423533098137 | 6.7236e-06 | deg |
node | 190.7850279660449 | 0.0001478 | deg |
peri | 311.8244715286611 | 0.0001497 | deg |
M | 310.4749966601215 | 2.2725e-05 | deg |
tp | 2459206.765509317810 (2020-Dec-23.26550932) | 9.4977e-05 | TDB |
period | 1499.355443649604 4.11 | 1.5862e-05 4.343e-08 | d yr |
n | .2401031733500886 | 2.5402e-09 | deg/d |
Q | 2.921624425475382 | 2.0606e-08 | au |
|
| | Orbit Determination Parameters
Additional Information
|